View from above orbital plane
|
View from above satellite
|
Ground track
|
The orbit data is extracted from the following two-line orbital elements,
1 19046U 88032B 21058.54922620 -.00000313 00000-0 -18616-4 0 9992
2 19046 97.3925 74.1193 0039299 58.8531 301.6539 15.02864980775272
Epoch (UTC): | 27 February 2021 13:10:53 |
Eccentricity: | 0.0039299 |
inclination: | 97.3925° |
perigee height: | 531 km |
apogee height: | 585 km |
right ascension of ascending node: | 74.1193° |
argument of perigee: | 58.8531° |
revolutions per day: | 15.02864980 |
mean anomaly at epoch: | 301.6539° |
orbit number at epoch: | 77527 |
The dashed part of the orbit path shows where the satellite is in the earth's shadow,
|
|